User: anonymous   Login
Location: Estes Par
(40.3770°N, 105.5210°W)
Time: 11:26:57
(UTC-06:00)
Language:

Hubble Space Telescope - Orbit

View from above orbital plane
View from above orbital plane
View from above satellite
View from above satellite

Ground track
Ground track

The orbit data is extracted from the following two-line orbital elements,

1 20580U 90037B   18111.23817411  .00000553  00000-0  22919-4 0  9993
2 20580  28.4687 131.5661 0002466 245.4271 195.0681 15.09021283336854
Epoch (UTC): 21 April 2018 05:42:58
Eccentricity: 0.0002466
inclination: 28.4687°
perigee height: 537 km
apogee height: 541 km
right ascension of ascending node: 131.5661°
argument of perigee: 245.4271°
revolutions per day: 15.09021283
mean anomaly at epoch: 195.0681°
orbit number at epoch: 33685

The dashed part of the orbit path shows where the satellite is in the earth's shadow,  

DLR